User: anonymous   Login
Location: Unspecified
(0.0000°N, 0.0000°E)
Time: 03:38:27
(UTC+00:00)
Language:

Vela 4A - Orbit

View from above orbital plane
View from above orbital plane
View from above satellite
View from above satellite

Ground track
Ground track

The orbit data is extracted from the following two-line orbital elements,

1 02765U 67040A   16125.95768131 -.00001054  00000-0  00000+0 0  9992
2 02765   5.6311  11.9433 4750293 183.3659   0.4941  0.21567110 38455
Epoch (UTC): 04 May 2016 22:59:03
Eccentricity: 0.4750293
inclination: 5.6311°
perigee height: 55282 km
apogee height: 166870 km
right ascension of ascending node: 11.9433°
argument of perigee: 183.3659°
revolutions per day: 0.21567110
mean anomaly at epoch: 0.4941°
orbit number at epoch: 3845

The dashed part of the orbit path shows where the satellite is in the earth's shadow,  

DLR